Location: Twentynine Palms Airport
(34.1316°N, 115.9458°W)
Time: 04:42:50
(UTC-08:00)

Amateur Radio Satellites - All Passes

Search period start: 16 December 2017 04:12
Search period end: 17 December 2017 04:12
Location: Twentynine Palms Airport, 34.1316°N, 115.9458°W

Satellite Date Start Highest point End Downlink Frequencies (MHz)
Time Altitude Azimuth
BEESAT 3 16 Dec 04:18:48 04:22:38 56° 59° (ENE) 04:26:25 437.485
AO-7 16 Dec 04:26:56 04:34:33 41° 296° (WNW) 04:42:10 .
XW-2C 16 Dec 04:42:57 04:44:00 11° 92° (E) 04:45:04 145.795 - 145.815
KKS-1 16 Dec 04:49:25 04:53:37 41° 261° (W) 04:57:52 437.445
JUGNU 16 Dec 04:53:23 04:57:26 19° 183° (S) 05:01:31 437.505
BEESAT 2 16 Dec 05:02:53 05:06:45 44° 58° (ENE) 05:10:32 435.950
CUTE-I 16 Dec 05:05:22 05:09:19 21° 95° (E) 05:13:13 437.470
ITAMSAT 1 16 Dec 05:08:47 05:10:33 12° 297° (WNW) 05:12:17 435.822/435.867
NO-84 16 Dec 05:09:44 05:12:37 90° 289° (WNW) 05:15:41 435.350 FM
PCSat 16 Dec 05:13:43 05:14:47 11° 258° (WSW) 05:15:51 145.827
HO-68 16 Dec 05:16:59 05:20:20 14° 92° (E) 05:23:38 435.675
LilacSat-2 16 Dec 05:19:17 05:22:55 37° 98° (E) 05:26:31 437.200
STARS 16 Dec 05:27:30 05:31:38 40° 261° (W) 05:35:46 437.465
NUDT-PHONESAT 16 Dec 05:28:13 05:31:29 28° 97° (E) 05:34:45 437.300
XW-2D 16 Dec 05:31:06 05:34:51 52° 99° (E) 05:38:36 145.860 - 145.880
DOVE 4 16 Dec 05:32:30 05:35:57 23° 291° (WNW) 05:39:17 437.250
KAITUO 1B 16 Dec 05:34:55 05:38:27 37° 98° (E) 05:41:58 145.475/437.950
STRAND 1 16 Dec 05:43:53 05:48:17 30° 70° (ENE) 05:52:41 437.568
SRMSAT 16 Dec 05:44:08 05:47:56 17° 171° (S) 05:51:44 437.500
XW-2B 16 Dec 05:46:58 05:50:50 84° 99° (E) 05:54:40 145.730 - 145.750
CUTE 1.7 + AOD 2 16 Dec 05:51:24 05:54:33 20° 95° (E) 05:57:41 437.475
AO-85 16 Dec 05:57:06 06:01:51 49° 58° (ENE) 06:06:52 145.980
XW-2F 16 Dec 05:57:29 06:01:19 74° 284° (WNW) 06:05:07 145.980 - 146.000
FO-29 16 Dec 06:09:45 06:15:49 26° 64° (ENE) 06:21:55 435.910
XW-2C 16 Dec 06:14:42 06:18:18 38° 286° (WNW) 06:21:53 145.795 - 145.815
BEESAT 2 16 Dec 06:42:35 06:43:59 12° 252° (WSW) 06:45:22 435.950
JUGNU 16 Dec 06:42:57 06:45:44 14° 193° (SSW) 06:48:32 437.505
CUTE-I 16 Dec 06:44:30 06:49:26 40° 289° (WNW) 06:54:20 437.470
UWE-3 16 Dec 06:52:47 06:56:45 33° 98° (E) 07:00:48 435.000/436.395/437.385
LilacSat-2 16 Dec 06:55:11 06:56:47 12° 292° (WNW) 06:58:22 437.200
CUBEBUG 2 16 Dec 06:56:38 07:00:56 72° 101° (E) 07:05:22 437.445
SEEDS 16 Dec 06:59:35 07:03:49 80° 100° (E) 07:08:02 437.485
HO-68 16 Dec 07:01:31 07:08:42 85° 287° (WNW) 07:15:51 435.675
NUDT-PHONESAT 16 Dec 07:02:53 07:05:02 15° 291° (WNW) 07:07:10 437.300
XW-2A 16 Dec 07:08:04 07:11:15 35° 98° (E) 07:14:25 145.665 - 145.685
KAITUO 1B 16 Dec 07:10:39 07:12:01 12° 292° (WNW) 07:13:22 145.475/437.950
O/OREOS (USA 219) 16 Dec 07:11:39 07:16:05 52° 106° (ESE) 07:20:33 437.305
AAUSAT CUBESAT 2 16 Dec 07:13:02 07:17:01 44° 99° (E) 07:20:57 437.432
ZACube-1 16 Dec 07:13:49 07:17:41 30° 97° (E) 07:21:36 437.345
STRAND 1 16 Dec 07:23:07 07:27:22 26° 264° (W) 07:31:38 437.568
CUTE 1.7 + AOD 2 16 Dec 07:26:41 07:30:19 27° 289° (WNW) 07:33:56 437.475
Oscar 11 16 Dec 07:30:34 07:34:10 25° 96° (E) 07:37:43 .
SRMSAT 16 Dec 07:32:10 07:36:26 20° 182° (S) 07:40:42 437.500
TIGRISAT 16 Dec 07:38:17 07:39:10 11° 66° (ENE) 07:40:03 435.000
AO-85 16 Dec 07:38:37 07:41:58 18° 251° (WSW) 07:45:25 145.980
UNISAT 6 16 Dec 07:40:54 07:42:55 13° 67° (ENE) 07:44:53 437.425
AO-73 16 Dec 07:46:12 07:50:35 64° 101° (E) 07:55:01 145.935
FO-29 16 Dec 07:52:34 08:00:09 63° 259° (W) 08:07:57 435.910
UWE-3 16 Dec 08:29:59 08:32:56 18° 291° (WNW) 08:35:55 435.000/436.395/437.385
AAUSAT CUBESAT 2 16 Dec 08:50:18 08:52:01 12° 293° (WNW) 08:53:42 437.432
ZACube-1 16 Dec 08:50:30 08:53:43 20° 290° (WNW) 08:57:00 437.345
HO-68 16 Dec 08:52:06 08:55:21 14° 303° (WNW) 08:58:35 435.675
O/OREOS (USA 219) 16 Dec 08:53:35 08:55:47 13° 301° (WNW) 08:58:00 437.305
Oscar 11 16 Dec 09:06:42 09:10:08 23° 290° (WNW) 09:13:34 .
TIGRISAT 16 Dec 09:11:09 09:15:22 54° 260° (W) 09:19:32 435.000
UNISAT 6 16 Dec 09:15:06 09:19:12 43° 261° (W) 09:23:17 437.425
ISS 16 Dec 09:17:14 09:20:01 26° 130° (SE) 09:22:49 437.550
Max Valier Satellite 16 Dec 09:17:54 09:21:35 57° 100° (E) 09:25:15 145.860
PRISM 16 Dec 09:18:20 09:22:21 50° 74° (ENE) 09:26:22 437.425
SRMSAT 16 Dec 09:21:35 09:24:56 15° 192° (SSW) 09:28:17 437.500
DELFI C3 16 Dec 09:31:55 09:35:47 58° 285° (WNW) 09:39:37 145.870
AIST 2D 16 Dec 09:36:43 09:39:29 22° 72° (ENE) 09:42:17 435.315
EO-88 16 Dec 09:41:20 09:45:00 80° 100° (E) 09:48:39 145.990 - 145.960
POLYITAN 1 16 Dec 09:54:22 09:56:19 13° 67° (ENE) 09:58:16 437.675
nSIGHT-1 16 Dec 10:04:00 10:07:09 55° 319° (NW) 10:10:19 .
LO-87 16 Dec 10:06:48 10:08:56 15° 95° (E) 10:11:03 145.935 - 145.965
QB50P2 16 Dec 10:18:22 10:21:59 29° 72° (ENE) 10:25:35 145.880/145.840
DUCHIFAT 1 16 Dec 10:20:52 10:23:55 20° 70° (ENE) 10:26:59 145.980
NANOSAT C BR1 16 Dec 10:47:20 10:51:23 50° 75° (ENE) 10:55:25 145.865
ISS 16 Dec 10:53:42 10:56:27 24° 325° (NW) 10:59:12 437.550
BUGSAT 1 16 Dec 10:56:10 10:56:46 10° 66° (ENE) 10:57:23 437.445
PRISM 16 Dec 10:57:26 10:57:50 10° 268° (W) 10:58:13 437.425
EO-79 16 Dec 11:03:52 11:08:03 85° 255° (WSW) 11:12:16 145.935-145.965
AIST 2D 16 Dec 11:10:27 11:12:34 15° 266° (W) 11:14:44 435.315
VELOX 1 16 Dec 11:21:30 11:22:48 11° 92° (E) 11:24:05 145.980
POLYITAN 1 16 Dec 11:27:43 11:31:40 42° 261° (W) 11:35:40 437.675
ESTCUBE 1 16 Dec 11:30:42 11:35:11 61° 285° (WNW) 11:39:37 437.505/2401.250
LO-87 16 Dec 11:39:24 11:42:15 23° 288° (WNW) 11:45:08 145.935 - 145.965
SPROUT 16 Dec 11:44:10 11:48:09 39° 99° (E) 11:52:07 437.525
NO-84 16 Dec 11:45:37 11:47:34 13° 35° (NE) 11:49:35 435.350 FM
Oscar 19 16 Dec 11:45:46 11:50:06 28° 69° (ENE) 11:54:27 437.125/150
AO-91 16 Dec 11:48:55 11:53:03 28° 73° (ENE) 11:56:51 145.960
QB50P2 16 Dec 11:54:49 11:57:44 18° 265° (W) 12:00:39 145.880/145.840
DUCHIFAT 1 16 Dec 11:55:55 11:59:23 26° 263° (W) 12:02:52 145.980
YUBILEINY 16 Dec 12:23:17 12:29:54 23° 70° (ENE) 12:36:25 435.215
BUGSAT 1 16 Dec 12:27:43 12:31:38 49° 260° (W) 12:35:33 437.445
Gurwin Techsat 1B 16 Dec 12:42:56 12:48:13 77° 75° (ENE) 12:53:33 435.225
VELOX 1 16 Dec 12:55:12 12:59:29 51° 286° (WNW) 13:03:42 145.980
RS-15 16 Dec 13:02:30 13:14:10 53° 109° (ESE) 13:25:50 29.354- 29.394
M-CUBED/EXP-1 PRIME 16 Dec 13:16:13 13:18:40 15° 61° (ENE) 13:21:12 437.505
SO-50 16 Dec 13:17:09 13:20:09 18° 109° (ESE) 13:23:10 436.795
NO-84 16 Dec 13:21:18 13:25:12 79° 228° (SW) 13:29:18 435.350 FM
SPROUT 16 Dec 13:21:21 13:23:39 14° 292° (WNW) 13:25:56 437.525
UKube-1 16 Dec 13:24:10 13:28:07 35° 99° (E) 13:32:03 .
Oscar 19 16 Dec 13:24:55 13:29:17 28° 263° (W) 13:33:42 437.125/150
AO-91 16 Dec 13:25:19 13:29:22 25° 262° (W) 13:33:08 145.960
AO-7 16 Dec 13:29:12 13:36:44 41° 64° (ENE) 13:44:18 .
50 SAT 16 Dec 13:41:30 13:44:34 53° 284° (WNW) 13:47:37 437.505
DX 1 16 Dec 13:44:08 13:48:28 74° 283° (WNW) 13:52:45 434.975-435.025
BEESAT 16 Dec 14:14:06 14:17:18 18° 95° (E) 14:20:29 436.000
YUBILEINY 16 Dec 14:18:36 14:27:18 66° 268° (W) 14:35:54 435.215
ITAMSAT 1 16 Dec 14:40:39 14:45:51 77° 75° (ENE) 14:51:04 435.822/435.867
ITUPSAT 1 16 Dec 14:42:55 14:47:19 36° 99° (E) 14:51:43 437.325
M-CUBED/EXP-1 PRIME 16 Dec 14:48:24 14:52:31 48° 257° (WSW) 14:56:55 437.505
DOVE 4 16 Dec 14:56:01 14:59:49 21° 69° (ENE) 15:03:33 437.250
SO-50 16 Dec 14:56:08 15:00:16 37° 304° (NW) 15:04:27 436.795
UKube-1 16 Dec 15:01:07 15:03:49 16° 293° (WNW) 15:06:29 .
CUBESAT XI-V 16 Dec 15:03:10 15:06:46 21° 95° (E) 15:10:20 437.345
MOZHAYETS 4 16 Dec 15:10:17 15:14:52 66° 285° (WNW) 15:19:28
RS-15 16 Dec 15:15:13 15:26:49 45° 309° (NW) 15:38:23 29.354- 29.394
AO-7 16 Dec 15:21:44 15:29:21 40° 260° (W) 15:37:03 .
BEESAT 16 Dec 15:50:44 15:55:09 38° 288° (WNW) 15:59:32 436.000
LilacSat-2 16 Dec 15:59:28 16:00:47 12° 68° (ENE) 16:02:07 437.200
XW-2D 16 Dec 16:09:44 16:11:56 15° 69° (ENE) 16:14:07 145.860 - 145.880
KAITUO 1B 16 Dec 16:13:27 16:14:18 11° 67° (ENE) 16:15:08 145.475/437.950
ITUPSAT 1 16 Dec 16:21:26 16:24:50 20° 293° (WNW) 16:28:14 437.325
CUTE-I 16 Dec 16:23:29 16:27:46 25° 68° (ENE) 16:32:03 437.470
PCSat 16 Dec 16:23:30 16:26:50 17° 104° (ESE) 16:30:12 145.827
XW-2B 16 Dec 16:24:51 16:27:48 22° 71° (ENE) 16:30:46 145.730 - 145.750
DOVE 4 16 Dec 16:32:10 16:37:09 42° 262° (W) 16:42:02 437.250
nSIGHT-1 16 Dec 16:33:51 16:36:39 26° 36° (NE) 16:39:24 .
XW-2F 16 Dec 16:34:34 16:37:46 27° 73° (ENE) 16:41:01 145.980 - 146.000
CUBESAT XI-V 16 Dec 16:39:58 16:44:06 31° 289° (WNW) 16:48:11 437.345
KKS-1 16 Dec 16:43:42 16:47:58 47° 100° (E) 16:52:13 437.445
XW-2C 16 Dec 16:51:34 16:55:13 51° 76° (ENE) 16:58:56 145.795 - 145.815
STARS 16 Dec 17:20:07 17:24:18 45° 100° (E) 17:28:28 437.465
ISS 16 Dec 17:23:47 17:27:04 67° 43° (NE) 17:30:18 437.550
O/OREOS (USA 219) 16 Dec 17:25:22 17:29:47 53° 68° (ENE) 17:34:07 437.305
HO-68 16 Dec 17:25:43 17:32:34 50° 69° (ENE) 17:39:25 435.675
LilacSat-2 16 Dec 17:31:04 17:34:38 38° 262° (W) 17:38:15 437.200
NUDT-PHONESAT 16 Dec 17:36:13 17:39:50 56° 260° (W) 17:43:29 437.300
RS-15 16 Dec 17:37:18 17:43:44 15° 340° (NNW) 17:50:08 29.354- 29.394
XW-2D 16 Dec 17:42:30 17:45:47 29° 263° (W) 17:49:08 145.860 - 145.880
KAITUO 1B 16 Dec 17:44:18 17:47:49 40° 261° (W) 17:51:23 145.475/437.950
UWE-3 16 Dec 17:47:19 17:49:54 16° 69° (ENE) 17:52:30 435.000/436.395/437.385
SEEDS 16 Dec 17:47:21 17:51:07 32° 72° (ENE) 17:54:54 437.485
CUBEBUG 2 16 Dec 17:51:15 17:55:04 34° 73° (ENE) 17:58:51 437.445
XW-2B 16 Dec 17:59:07 18:01:51 19° 265° (W) 18:04:37 145.730 - 145.750
STRAND 1 16 Dec 17:59:31 18:01:53 13° 92° (E) 18:04:16 437.568
AAUSAT CUBESAT 2 16 Dec 18:00:01 18:02:53 18° 69° (ENE) 18:05:46 437.432
CUTE-I 16 Dec 18:02:42 18:07:34 35° 262° (W) 18:12:27 437.470
PCSat 16 Dec 18:04:28 18:09:44 53° 299° (WNW) 18:15:02 145.827
BEESAT 3 16 Dec 18:04:54 18:08:02 23° 111° (ESE) 18:11:11 437.485
ZACube-1 16 Dec 18:07:30 18:09:37 14° 68° (ENE) 18:11:45 437.345
XW-2F 16 Dec 18:09:39 18:11:51 15° 266° (W) 18:14:05 145.980 - 146.000
nSIGHT-1 16 Dec 18:10:10 18:12:44 22° 230° (SW) 18:15:17 .
CUTE 1.7 + AOD 2 16 Dec 18:14:29 18:18:41 65° 260° (W) 18:22:55 437.475
KKS-1 16 Dec 18:21:58 18:24:04 13° 294° (WNW) 18:26:08 437.445
Oscar 11 16 Dec 18:23:19 18:25:08 12° 67° (ENE) 18:26:57 .
AO-73 16 Dec 18:38:22 18:41:53 28° 72° (ENE) 18:45:27 145.935
BEESAT 2 16 Dec 18:50:57 18:53:48 19° 110° (ESE) 18:56:40 435.950
FALCONSAT 3 16 Dec 18:55:44 18:56:53 11° 147° (SSE) 18:58:00 435.103
STARS 16 Dec 18:58:07 19:00:12 13° 294° (WNW) 19:02:16 437.465
XW-2A 16 Dec 19:07:20 19:10:35 51° 260° (W) 19:13:52 145.665 - 145.685
O/OREOS (USA 219) 16 Dec 19:07:35 19:08:36 11° 262° (W) 19:09:37 437.305
FO-29 16 Dec 19:08:59 19:14:00 23° 92° (E) 19:18:35 435.910
HO-68 16 Dec 19:14:35 19:20:26 27° 264° (W) 19:26:19 435.675
UWE-3 16 Dec 19:22:22 19:26:05 31° 263° (W) 19:29:47 435.000/436.395/437.385
SEEDS 16 Dec 19:24:07 19:26:49 17° 266° (W) 19:29:33 437.485
CUBEBUG 2 16 Dec 19:29:24 19:31:45 15° 266° (W) 19:34:05 437.445
AAUSAT CUBESAT 2 16 Dec 19:34:27 19:38:04 29° 263° (W) 19:41:44 437.432
STRAND 1 16 Dec 19:36:22 19:41:22 57° 286° (WNW) 19:46:20 437.568
ZACube-1 16 Dec 19:41:42 19:45:32 37° 262° (W) 19:49:24 437.345
BEESAT 3 16 Dec 19:42:08 19:45:25 24° 306° (NW) 19:48:43 437.485
Max Valier Satellite 16 Dec 19:54:15 19:56:15 14° 69° (ENE) 19:58:17 145.860
Oscar 11 16 Dec 19:56:39 20:00:48 47° 261° (W) 20:04:59 .
RS-15 16 Dec 19:57:54 20:03:56 15° 19° (NNE) 20:09:49 29.354- 29.394
AO-85 16 Dec 20:08:53 20:12:18 31° 112° (ESE) 20:15:50 145.980
DELFI C3 16 Dec 20:12:52 20:16:38 42° 74° (ENE) 20:20:25 145.870
AO-73 16 Dec 20:15:20 20:18:07 18° 266° (W) 20:20:55 145.935
EO-88 16 Dec 20:15:51 20:18:23 18° 71° (ENE) 20:20:56 145.990 - 145.960
BEESAT 2 16 Dec 20:27:46 20:31:17 29° 305° (NW) 20:34:50 435.950
FALCONSAT 3 16 Dec 20:31:55 20:35:27 46° 159° (SSE) 20:39:01 435.103
FO-29 16 Dec 20:53:05 20:59:21 45° 291° (WNW) 21:04:53 435.910
TIGRISAT 16 Dec 21:05:53 21:10:00 38° 99° (E) 21:14:10 435.000
UNISAT 6 16 Dec 21:09:46 21:14:01 47° 100° (E) 21:18:21 437.425
Max Valier Satellite 16 Dec 21:26:39 21:29:47 27° 263° (W) 21:32:57 145.860
EO-88 16 Dec 21:49:02 21:51:50 21° 264° (W) 21:54:40 145.990 - 145.960
AO-85 16 Dec 21:50:03 21:52:45 17° 310° (NW) 21:55:31 145.980
DELFI C3 16 Dec 21:50:24 21:51:31 11° 268° (W) 21:52:39 145.870
RS-15 16 Dec 22:09:44 22:20:50 44° 50° (NE) 22:31:19 29.354- 29.394
LO-87 16 Dec 22:10:31 22:14:02 67° 77° (ENE) 22:17:33 145.935 - 145.965
FALCONSAT 3 16 Dec 22:10:47 22:14:29 76° 352° (N) 22:18:10 435.103
ESTCUBE 1 16 Dec 22:25:55 22:30:24 76° 77° (ENE) 22:34:57 437.505/2401.250
SPROUT 16 Dec 22:34:23 22:37:22 19° 69° (ENE) 22:40:21 437.525
AIST 2D 16 Dec 22:37:11 22:40:36 45° 99° (E) 22:44:00 435.315
NANOSAT C BR1 16 Dec 22:37:47 22:38:39 11° 92° (E) 22:39:31 145.865
PRISM 16 Dec 22:38:08 22:42:08 56° 285° (WNW) 22:46:05 437.425
TIGRISAT 16 Dec 22:43:42 22:46:21 16° 292° (WNW) 22:49:01 435.000
UNISAT 6 16 Dec 22:48:16 22:50:17 13° 293° (WNW) 22:52:19 437.425
EO-79 16 Dec 22:52:49 22:55:56 20° 95° (E) 22:59:03 145.935-145.965
POLYITAN 1 16 Dec 23:15:50 23:19:47 38° 99° (E) 23:23:44 437.675
SO-50 16 Dec 23:30:09 23:34:50 66° 60° (ENE) 23:39:33 436.795
QB50P2 16 Dec 23:41:33 23:45:48 87° 283° (WNW) 23:50:02 145.880/145.840
DUCHIFAT 1 16 Dec 23:42:25 23:46:35 61° 101° (E) 23:50:44 145.980
VELOX 1 16 Dec 23:47:59 23:52:26 85° 74° (ENE) 23:56:54 145.980
FALCONSAT 3 16 Dec 23:49:58 23:53:40 82° 9° (N) 23:57:21 435.103
Oscar 19 17 Dec 00:02:28 00:04:48 13° 92° (E) 00:07:08 437.125/150
50 SAT 17 Dec 00:04:16 00:06:30 18° 71° (ENE) 00:08:43 437.505
SPROUT 17 Dec 00:09:19 00:13:00 29° 263° (W) 00:16:43 437.525
NANOSAT C BR1 17 Dec 00:10:30 00:14:34 49° 285° (WNW) 00:18:38 145.865
BUGSAT 1 17 Dec 00:13:01 00:16:31 27° 98° (E) 00:20:01 437.445
UKube-1 17 Dec 00:15:30 00:18:35 19° 69° (ENE) 00:21:40 .
RS-15 17 Dec 00:22:22 00:33:17 50° 251° (WSW) 00:43:44 29.354- 29.394
EO-79 17 Dec 00:28:04 00:31:37 27° 289° (WNW) 00:35:10 145.935-145.965
DX 1 17 Dec 00:35:29 00:39:46 57° 74° (ENE) 00:44:04 434.975-435.025
POLYITAN 1 17 Dec 00:52:50 00:55:11 15° 292° (WNW) 00:57:34 437.675
Gurwin Techsat 1B 17 Dec 01:03:09 01:08:09 41° 99° (E) 01:13:07 435.225
JUGNU 17 Dec 01:03:57 01:05:41 11° 165° (SSE) 01:07:25 437.505
SO-50 17 Dec 01:13:33 01:14:43 11° 253° (WSW) 01:15:53 436.795
BEESAT 17 Dec 01:17:46 01:20:15 14° 65° (ENE) 01:22:44 436.000
AO-91 17 Dec 01:18:19 01:21:44 88° 279° (W) 01:25:07 145.960
YUBILEINY 17 Dec 01:19:28 01:26:43 30° 84° (E) 01:33:58 435.215
FALCONSAT 3 17 Dec 01:29:13 01:32:37 36° 203° (SSW) 01:36:01 435.103
50 SAT 17 Dec 01:36:23 01:38:17 15° 264° (W) 01:40:13 437.505
AO-7 17 Dec 01:37:25 01:41:24 14° 92° (E) 01:45:22 .
Oscar 19 17 Dec 01:39:18 01:44:27 61° 286° (WNW) 01:49:32 437.125/150
ITUPSAT 1 17 Dec 01:46:11 01:50:12 28° 70° (ENE) 01:54:14 437.325
BUGSAT 1 17 Dec 01:48:50 01:51:38 18° 291° (WNW) 01:54:26 437.445
UKube-1 17 Dec 01:50:34 01:54:21 30° 262° (W) 01:58:09 .
CUBESAT XI-V 17 Dec 02:03:48 02:06:18 14° 66° (ENE) 02:08:48 437.345
MOZHAYETS 4 17 Dec 02:08:00 02:12:31 75° 76° (ENE) 02:17:05
M-CUBED/EXP-1 PRIME 17 Dec 02:31:37 02:34:23 16° 97° (E) 02:37:00 437.505
Gurwin Techsat 1B 17 Dec 02:43:51 02:47:46 21° 293° (WNW) 02:51:40 435.225
JUGNU 17 Dec 02:50:04 02:53:57 18° 174° (S) 02:57:51 437.505
BEESAT 17 Dec 02:52:56 02:57:32 51° 260° (W) 03:02:10 436.000
PCSat 17 Dec 02:55:53 03:01:14 55° 62° (ENE) 03:06:30 145.827
ITAMSAT 1 17 Dec 02:57:35 03:02:20 36° 99° (E) 03:07:03 435.822/435.867
YUBILEINY 17 Dec 03:14:30 03:22:59 51° 281° (W) 03:31:33 435.215
ITUPSAT 1 17 Dec 03:24:07 03:27:56 24° 264° (W) 03:31:48 437.325
AO-7 17 Dec 03:26:35 03:35:01 87° 107° (ESE) 03:43:23 .
KKS-1 17 Dec 03:38:11 03:41:58 28° 71° (ENE) 03:45:46 437.445
CUBESAT XI-V 17 Dec 03:38:43 03:43:12 48° 261° (W) 03:47:44 437.345
SRMSAT 17 Dec 03:45:32 03:46:28 10° 163° (SSE) 03:47:25 437.500
BEESAT 3 17 Dec 04:01:13 04:05:03 54° 59° (ENE) 04:08:49 437.485
M-CUBED/EXP-1 PRIME 17 Dec 04:04:50 04:08:50 35° 293° (WNW) 04:12:35 437.505
